{"data":{"norad_id":36834,"epoch":"2026-05-25T04:22:24.178656Z","epoch_age_seconds":56327,"freshness":"FRESH","line1":"1 36834U 10038A   26145.18222429  .00001921  00000+0  23003-3 0  9997","line2":"2 36834  97.8994 168.7707 0001626  93.6591 356.1406 14.85268612853796","mean_motion":14.85268612,"eccentricity":0.0001626,"inclination_deg":97.8994,"raan_deg":168.7707,"arg_perigee_deg":93.6591,"mean_anomaly_deg":356.1406,"bstar":0.00023003,"rev_number":85379,"period_min":96.952159923514,"perigee_km":611.60614965083,"apogee_km":613.87958378348,"semimajor_km":6990.8798667172,"source":"CELESTRAK","updated_at":"2026-05-25T13:38:12.778163Z"}}